Regional Weather Roundup
Issued by NWS Lake Charles, LA

Home | Current Version | Previous Version | Text Only | Print | Product List | Glossary On
Versions: 1 2 3 4 5 6 7 8 9 10 11 12 13 14 15 16 17 18 19 20 21 22 23 24 25 26 27
000
ASUS44 KLCH 260710
RWRLCH
REGIONAL WEATHER ROUNDUP
NATIONAL WEATHER SERVICE LAKE CHARLES LA
200 AM CDT WED JUL 26 2017

Note: "fair" indicates few or no clouds below 12,000 feet with no
significant weather and/or obstructions to visibility.


ACROSS SOUTHEAST TEXAS

CITY           SKY/WX    TMP DP  RH WIND       PRES   REMARKS
BEAUMONT       CLEAR     78  76  93 CALM      30.08F
BEAUMONT CITY  FAIR      79  76  91 MISG      30.09F
ORANGE         SUNNY     79  78  97 CALM      30.10F
JASPER           N/A     77  76  97 CALM      30.12F FOG
$$

ACROSS CENTRAL LOUISIANA

CITY           SKY/WX    TMP DP  RH WIND       PRES   REMARKS
LEESVILLE      CLEAR     77  75  94 S3        30.12S
FULLERTON      FAIR      74  74 100 CALM      30.09F FOG
ALEXANDRIA INT CLEAR     76  74  93 CALM      30.09F
ESLER FIELD    CLEAR     72  72 100 W3        30.10F FOG
DERIDDER       FAIR      77  75  95 CALM      30.13F
OAKDALE        SUNNY     74  73  96 CALM      30.11F FOG
OPELOUSAS      FAIR      76  75  99 CALM      30.11S
$$

ACROSS SOUTHWEST AND SOUTH CENTRAL LOUISIANA

CITY           SKY/WX    TMP DP  RH WIND       PRES   REMARKS
SULPHUR        PTSUNNY   80  78  94 CALM      30.11S
LAKE CHARLES   PTCLDY    78  77  96 SE3       30.09F
CHENNAULT INT  PTCLDY    76  76  98 CALM      30.10F
CAMERON PHI    MOSUNNY   84  79  84 S8        30.08F
DEQUINCY       PTSUNNY   74  73  97 CALM      30.11S
JENNINGS       FAIR      76  75  96 CALM      30.11F
LAFAYETTE      CLOUDY    79  78  97 SW3       30.11F
NEW IBERIA     CLOUDY    79  75  87 SW3       30.11F
ABBEVILLE      FAIR      75  75 100 CALM      30.11F
PATTERSON      MOCLDY    75  75 100 SW3       30.11F
SALT POINT       N/A     84  76  76 VRB5      30.10F
$$

SELECTED SITES ACROSS THE REGION

CITY           SKY/WX    TMP DP  RH WIND       PRES   REMARKS
HOUSTON BUSH   PTCLDY    82  73  74 S5        30.07F
HOUSTON HOBBY  CLOUDY    81  74  79 S3        30.06F
GALVESTON      CLOUDY    83  78  85 S5        30.06F
COLLEGE STAT   PTCLDY    80  75  84 S6        30.07F
CONROE         CLEAR     78  75  90 E3        30.09S
HUNTSVILLE     CLEAR     81  74  79 CALM      30.09S
LUFKIN         CLEAR     76  75  97 E5        30.09F
SHREVEPORT     CLEAR     78  74  87 S7        30.09S
MONROE         CLEAR     76  72  87 S5        30.11R
NATCHEZ MS     CLEAR     74  73  97 CALM      30.12F
BATON ROUGE    CLEAR     75  74  96 CALM      30.11S
N.O. INTL ARPT CLOUDY    81  75  82 CALM      30.10F
SLIDELL        CLOUDY    78  75  90 N3        30.10S
$$

MARINE REPORTS

STATION/POSITION TIME  SKY/WX   TEMP    WIND        PRES    VSBY
                                AIR SEA DIR/SP/G
                 (UTC)          (F)     (DEG/KT/KT) (MB)    (MI)
BUOY 30 S HIGH I 0550            86 85  200/ 14/ 16 1018.8
WVE H/P(F/S)=  3/ 6

SEA RIM ST PARK  0700            84     190/ 10/ 11 1019.0F
PORT ARTHUR      0648            82 86  190/  3/  5 1018.9F
SABINE PASS N    0648            84 88  190/  5/  8 1020.1F
TEXAS POINT      NOT AVBL
CALCASIEU PASS   0648            85 85  220/ 10/ 12 1018.2F
LK CHARLES BEACH 0648            80 87              1019.7F
MARSH ISLAND     NOT AVBL
FRESH WATER LOCK 0648            83 87  180/  2/  3 1019.5F
AMERADA PASS     0648            81 86   CALM  /  2 1019.6F
$$




USA.gov is the U.S. government's official web portal to all federal, state and local government web resources and services.